Weather Roundup
Issued by NWS Chicago, IL

Home | Current Version | Previous Version | Graphics & Text | Print | Product List | Glossary On
Versions: 1 2 3 4 5 6 7 8 9 10 11 12 13 14 15 16 17 18 19 20 21 22 23 24 25 26 27 28 29 30 31 32 33 34 35 36 37 38 39 40 41 42 43 44 45 46 47 48 49 50
000
NZUS59 KLOT 032308
HRRLOT

CHICAGO AREA WEATHER ROUNDUP
NATIONAL WEATHER SERVICE CHICAGO/ROMEOVILLE IL
600 PM CDT SUN MAY 03 2015

NOTE: "FAIR" INDICATES FEW OR NO CLOUDS BELOW 12,000 FEET WITH NO
SIGNIFICANT WEATHER AND/OR OBSTRUCTIONS TO VISIBILITY.

* THESE STATIONS ARE NOT UNDER NWS QUALITY CONTROL. THEY ALSO MAY NOT
  REPORT WEATHER SUCH AS PRECIPITATION OR FOG.

ILZ005-006-012>014-019>023-040000-
NORTHEAST ILLINOIS

CITY           SKY/WX    TMP DP  RH WIND       PRES   REMARKS
OHARE          LGT RAIN  76  47  35 SW10      29.91R
MIDWAY         CLOUDY    80  46  30 SW10G20   29.91R
AURORA         LGT RAIN  63  58  83 N14       29.94R
LANSING*       CLOUDY    77  38  24 S13       29.93R
JOLIET*        CLOUDY    78  50  37 S6G17     29.91S
WAUKEGAN       LGT RAIN  64  57  78 W8        29.94R
DUPAGE AIRPORT RAIN      64  58  80 NW13      29.94R
WHEELING       LGT RAIN  71  52  50 NW20G26   29.94R
KANKAKEE*      PTSUNNY   78  46  32 S18       29.94R
MORRIS*        CLOUDY    78  46  31 SW12      29.90R
LEWIS AIRPORT* LGT RAIN  76  45  34 SW17      29.91S
NORTHERLY IS     N/A     79  42  26 SW9         N/A
$$

WIZ051-052-058>065-066-070>072-040000-
SOUTHEAST WISCONSIN

CITY           SKY/WX    TMP DP  RH WIND       PRES   REMARKS
MILWAUKEE      CLOUDY    69  54  58 SW15G23   29.92R
KENOSHA*       LGT RAIN  64  59  83 W9        29.94R
RACINE*        LGT RAIN  69  54  58 SW14G22   29.94R
BURLINGTON     RAIN      60  57  88 SW18G25   29.93S
WAUKESHA       PTSUNNY   66  54  63 SW12G23   29.93R
WEST BEND      PTSUNNY   72  52  49 SW18G30   29.89S
$$

INZ001>003-010>013-019-020-040000-
NORTHWEST INDIANA

CITY           SKY/WX    TMP DP  RH WIND       PRES   REMARKS
GARY*          PTSUNNY   81 N/A N/A S14       29.93R
MICHIGAN CITY* NOT AVBL
RENSSELAER*    NOT AVBL
VALPARAISO     PTSUNNY   78  43  28 S14       29.95R
$$

LMZ740>746-040000-
SOUTHERN LAKE MICHIGAN

STATION/POSITION TIME  SKY/WX   TEMP WIND        PRES    VSBY
                                AIR  DIR/SP/G
                 (UTC)          (F)  (DEG/KT/KT) (MB)    (MI)
HARRISON CRIB    2200            70  170/ 13/ 14   N/A
BURNHAM HARBOR   2300            79  190/  9/ 14   N/A
CALUMET HARBOR   2212            80  210/ 17/ 22   N/A
BURNS HARBOR     2200            79  190/ 12/ 17 1013.5F
MICHIGAN CITY    2200            78  160/ 10/ 14   N/A
$$

ABBREVIATIONS USED IN REMARKS
   TC - TEMPERATURE IN CELSIUS
  WCI - WIND CHILL INDEX
   HX - HEAT INDEX
  VSB - VISIBILITY
$$


USA.gov is the U.S. government's official web portal to all federal, state and local government web resources and services.